Flippin, AR

6:13 AM CDT on October 17, 2017 (GMT -0500)
Marion County Regional

Weather History for KFLP - October, 2011

Change the Weather History Date:

Monday, October 31, 2011

  Actual Average Record
Temperature  
Mean Temperature 48 °F -  
Max Temperature 64 °F 64 °F 80 °F (2000)
Min Temperature 33 °F 46 °F 33 °F (2011)
Degree Days  
Heating Degree Days 16    
Moisture  
Dew Point 32 °F    
Average Humidity 61    
Maximum Humidity 87    
Minimum Humidity 28    
Precipitation  
Precipitation 0.00 in - - ()
Sea Level Pressure  
Sea Level Pressure 30.14 in    
Wind  
Wind Speed 2 mph (SSW)    
Max Wind Speed 9 mph    
Max Gust Speed -    
Visibility 10 miles    
Events      
Averages and records for this station are not official NWS values.
T = Trace of Precipitation, MM = Missing Value Source: NWS Daily Summary

Daily Weather History Graph

Daily Weather History Graph

Search for Another Location

Airport or City:

Trip Planner

Search our weather history database for the weather conditions in past years. The results will help you decide how hot, cold, wet, or windy it might be!

Date:

Astronomy

Oct. 31, 2011 Rise Set
Actual Time 7:32 AM CDT 6:15 PM CDT
Civil Twilight 7:05 AM CDT 6:41 PM CDT
Nautical Twilight 6:35 AM CDT 7:12 PM CDT
Astronomical Twilight 6:05 AM CDT 7:42 PM CDT
Moon 12:35 PM CDT (10/31) 10:55 PM CDT (10/31)
Length of Visible Light 11h 36m
Length of Day
10h 43m
Waxing Crescent, 30% of the Moon is Illuminated
Oct 31
Waxing Crescent
Nov 2
First Quarter
Nov 10
Full
Nov 18
Last Quarter
Nov 25
New

Hourly Weather History & Observations

Time (CDT) Temp. Windchill Dew Point Humidity Pressure Visibility Wind Dir Wind Speed Gust Speed Precip Events Conditions
12:15 AM - - - N/A% 30.15 in 10.0 mi WNW 4.6 mph - N/A   Clear
12:35 AM - - - N/A% 30.15 in 10.0 mi Calm Calm - N/A   Clear
12:55 AM - - - N/A% 30.15 in 10.0 mi Calm Calm - N/A   Clear
1:35 AM - - - N/A% 30.15 in 10.0 mi Calm Calm - N/A   Clear
1:55 AM 46.4 °F - 32.0 °F 57% 30.15 in 10.0 mi Calm Calm - N/A   Clear
2:15 AM 44.6 °F - 32.0 °F 61% 30.16 in 10.0 mi Calm Calm - N/A   Clear
2:35 AM 42.8 °F - 32.0 °F 66% 30.16 in 10.0 mi Calm Calm - N/A   Clear
2:55 AM 42.8 °F - 32.0 °F 66% 30.16 in 10.0 mi Calm Calm - N/A   Clear
3:15 AM 42.8 °F - 33.8 °F 70% 30.15 in 10.0 mi Calm Calm - N/A   Clear
3:35 AM 42.8 °F - 33.8 °F 70% 30.15 in 10.0 mi Calm Calm - N/A   Clear
3:55 AM - - - N/A% 30.15 in 10.0 mi Calm Calm - N/A   Clear
4:15 AM - - - N/A% 30.14 in 10.0 mi Calm Calm - N/A   Clear
4:55 AM - - - N/A% 30.14 in 10.0 mi Calm Calm - N/A   Clear
5:15 AM - - - N/A% 30.14 in 10.0 mi South 3.5 mph - N/A   Clear
5:35 AM 35.6 °F - 30.2 °F 81% 30.15 in 10.0 mi Calm Calm - N/A   Clear
5:55 AM - - - N/A% 30.15 in 1.2 mi ENE 3.5 mph - N/A   Clear
6:15 AM 35.6 °F - 30.2 °F 81% 30.16 in 9.0 mi Calm Calm - N/A   Clear
7:15 AM 33.8 °F - 30.2 °F 87% 30.16 in 10.0 mi Calm Calm - N/A   Clear
7:35 AM 33.8 °F - 28.4 °F 81% 30.16 in 9.0 mi Calm Calm - N/A   Clear
7:55 AM 33.8 °F 30.8 °F 28.4 °F 81% 30.16 in 9.0 mi ENE 3.5 mph - N/A   Clear
8:15 AM 33.8 °F 30.8 °F 30.2 °F 87% 30.16 in 0.5 mi ENE 3.5 mph - N/A   Unknown
8:35 AM 35.6 °F - 32.0 °F 87% 30.18 in 0.2 mi Calm Calm - N/A   Unknown
8:55 AM 37.4 °F - 33.8 °F 87% 30.18 in 10.0 mi Calm Calm - N/A   Clear
9:15 AM - - - N/A% 30.19 in 10.0 mi Calm Calm - N/A   Clear
9:35 AM - - - N/A% 30.19 in 10.0 mi Calm Calm - N/A   Clear
10:15 AM - - - N/A% 30.20 in 10.0 mi SW 8.1 mph - N/A   Clear
10:35 AM - - - N/A% 30.20 in 10.0 mi SW 5.8 mph - N/A   Clear
10:55 AM - - - N/A% 30.20 in 10.0 mi SSW 3.5 mph - N/A   Clear
11:15 AM - - - N/A% 30.20 in 10.0 mi WSW 5.8 mph - N/A   Clear
11:35 AM - - - N/A% 30.19 in 10.0 mi SW 8.1 mph - N/A   Clear
11:55 AM - - - N/A% 30.18 in 10.0 mi SSW 5.8 mph - N/A   Clear
12:15 PM 64.4 °F - 30.2 °F 28% 30.18 in 10.0 mi SSW 5.8 mph - N/A   Clear
1:15 PM - - - N/A% 30.15 in 10.0 mi WSW 6.9 mph - N/A   Clear
2:15 PM - - - N/A% 30.12 in 10.0 mi WSW 5.8 mph - N/A   Clear
2:35 PM - - - N/A% 30.12 in 10.0 mi WSW 5.8 mph - N/A   Clear
2:55 PM - - - N/A% 30.11 in 10.0 mi SW 9.2 mph - N/A   Clear
3:15 PM - - - N/A% 30.11 in 10.0 mi SSW 5.8 mph - N/A   Clear
3:35 PM - - - N/A% 30.11 in 10.0 mi West 9.2 mph - N/A   Clear
3:55 PM - - - N/A% 30.10 in 10.0 mi South 6.9 mph - N/A   Clear
4:15 PM - - - N/A% 30.10 in 10.0 mi SSW 9.2 mph - N/A   Clear
5:15 PM - - - N/A% 30.09 in 10.0 mi SSW 3.5 mph - N/A   Clear
5:35 PM - - - N/A% 30.09 in 10.0 mi South 3.5 mph - N/A   Clear
5:55 PM - - - N/A% 30.09 in 10.0 mi Calm Calm - N/A   Clear
6:15 PM - - - N/A% 30.10 in 10.0 mi Calm Calm - N/A   Clear
6:35 PM 62.6 °F - 33.8 °F 34% 30.11 in 10.0 mi Calm Calm - N/A   Clear
6:55 PM 60.8 °F - 35.6 °F 39% 30.11 in 10.0 mi Calm Calm - N/A   Clear
7:15 PM 60.8 °F - 33.8 °F 36% 30.11 in 10.0 mi Calm Calm - N/A   Clear
7:35 PM 57.2 °F - 35.6 °F 44% 30.11 in 10.0 mi SSW 3.5 mph - N/A   Clear
7:55 PM 55.4 °F - 35.6 °F 47% 30.11 in 10.0 mi WSW 4.6 mph - N/A   Clear
8:15 PM 57.2 °F - 33.8 °F 41% 30.12 in 10.0 mi SW 5.8 mph - N/A   Clear
8:55 PM 55.4 °F - 33.8 °F 44% 30.12 in 10.0 mi SW 4.6 mph - N/A   Clear
9:15 PM 55.4 °F - 33.8 °F 44% 30.12 in 10.0 mi SSW 3.5 mph - N/A   Clear
9:35 PM - - - N/A% 30.12 in 10.0 mi SW 5.8 mph - N/A   Clear
9:55 PM - - - N/A% 30.12 in 10.0 mi SSW 4.6 mph - N/A   Clear
10:15 PM 53.6 °F - 32.0 °F 44% 30.13 in 10.0 mi SSW 4.6 mph - N/A   Clear
10:35 PM 51.8 °F - 33.8 °F 50% 30.13 in 10.0 mi Calm Calm - N/A   Clear
11:35 PM - - - N/A% 30.13 in 10.0 mi South 3.5 mph - N/A   Clear
11:55 PM - - - N/A% 30.13 in 10.0 mi SSE 3.5 mph - N/A   Clear